Thomasville, PA

9:08 AM EDT on August 27, 2016 (GMT -0400)
York

Weather History for KTHV - January, 2014

Change the Weather History Date:

Monday, January 27, 2014

  Actual Average Record
Temperature  
Mean Temperature 28 °F -  
Max Temperature 43 °F 0 °F 66 °F (2002)
Min Temperature 14 °F - 1 °F (2000)
Degree Days  
Heating Degree Days 36    
Moisture  
Dew Point 10 °F    
Average Humidity 57    
Maximum Humidity 81    
Minimum Humidity 40    
Precipitation  
Precipitation 0.00 in - - ()
Sea Level Pressure  
Sea Level Pressure 29.87 in    
Wind  
Wind Speed 6 mph (WNW)    
Max Wind Speed 22 mph    
Max Gust Speed 30 mph    
Visibility 10 miles    
Events      
Averages and records for this station are not official NWS values.
T = Trace of Precipitation, MM = Missing Value Source: NWS Daily Summary

Daily Weather History Graph

Daily Weather History Graph

Search for Another Location

Airport or City:

Trip Planner

Search our weather history database for the weather conditions in past years. The results will help you decide how hot, cold, wet, or windy it might be!

Date:

Astronomy

Jan. 27, 2014 Rise Set
Actual Time 7:20 AM EST 5:20 PM EST
Civil Twilight 6:51 AM EST 5:49 PM EST
Nautical Twilight 6:18 AM EST 6:22 PM EST
Astronomical Twilight 5:46 AM EST 6:54 PM EST
Moon 3:59 AM EST 2:04 PM EST
Length of Visible Light 10h 58m
Length of Day
10h 00m
Waning Crescent, 15% of the Moon is Illuminated
Jan 27
Waning Crescent
Jan 30
New
Feb 6
First Quarter
Feb 14
Full
Feb 22
Last Quarter

Hourly Weather History & Observations

Time (EST) Temp. Windchill Dew Point Humidity Pressure Visibility Wind Dir Wind Speed Gust Speed Precip Events Conditions
12:53 AM 16.0 °F - 10.9 °F 81% 29.71 in 10.0 mi Calm Calm - N/A   Clear
1:53 AM 15.1 °F - 10.0 °F 80% 29.70 in 10.0 mi Calm Calm - N/A   Partly Cloudy
2:53 AM 17.1 °F - 10.9 °F 77% 29.69 in 10.0 mi Calm Calm - N/A   Scattered Clouds
3:53 AM 18.0 °F 12.7 °F 12.0 °F 78% 29.65 in 10.0 mi Variable 3.5 mph - N/A   Partly Cloudy
4:53 AM 19.9 °F 14.9 °F 14.0 °F 78% 29.64 in 10.0 mi Variable 3.5 mph - N/A   Mostly Cloudy
5:53 AM 21.9 °F - 16.0 °F 78% 29.62 in 10.0 mi Calm Calm - N/A   Overcast
6:53 AM 26.1 °F - 17.1 °F 69% 29.64 in 10.0 mi Calm Calm - N/A   Overcast
7:53 AM 28.9 °F 25.2 °F 21.0 °F 72% 29.66 in 10.0 mi ENE 3.5 mph - N/A   Overcast
8:53 AM 37.9 °F 32.1 °F 21.9 °F 53% 29.66 in 10.0 mi SW 8.1 mph - N/A   Clear
9:53 AM 43.0 °F 38.8 °F 24.1 °F 47% 29.69 in 10.0 mi West 6.9 mph - N/A   Partly Cloudy
10:53 AM 36.0 °F 24.7 °F 21.9 °F 57% 29.79 in 10.0 mi WNW 21.9 mph 29.9 mph N/A   Overcast
11:53 AM 35.1 °F 24.8 °F 18.0 °F 50% 29.83 in 10.0 mi WNW 17.3 mph 25.3 mph N/A   Overcast
12:53 PM 30.9 °F 19.1 °F 14.0 °F 50% 29.86 in 10.0 mi NW 18.4 mph 28.8 mph N/A   Overcast
1:53 PM 28.0 °F 14.9 °F 12.0 °F 51% 29.90 in 10.0 mi NW 19.6 mph 26.5 mph N/A   Overcast
2:53 PM 26.1 °F 13.6 °F 6.1 °F 43% 29.93 in 10.0 mi WNW 16.1 mph 27.6 mph N/A   Mostly Cloudy
3:53 PM 25.0 °F 12.2 °F 5.0 °F 43% 29.95 in 10.0 mi WNW 16.1 mph - N/A   Clear
4:53 PM 23.0 °F 9.6 °F 1.9 °F 40% 29.99 in 10.0 mi WNW 16.1 mph 23.0 mph N/A   Clear
5:53 PM 21.9 °F 10.4 °F 1.0 °F 40% 30.03 in 10.0 mi WNW 11.5 mph - N/A   Clear
6:53 PM 19.9 °F 9.3 °F -0.0 °F 42% 30.07 in 10.0 mi NW 9.2 mph - N/A   Clear
7:53 PM 16.0 °F - -0.9 °F 47% 30.11 in 10.0 mi Calm Calm - N/A   Clear
8:53 PM 17.1 °F 7.6 °F -0.9 °F 45% 30.13 in 10.0 mi WNW 6.9 mph - N/A   Clear
9:53 PM 18.0 °F 9.8 °F -0.0 °F 45% 30.16 in 10.0 mi West 5.8 mph - N/A   Clear
10:53 PM 14.0 °F - -2.0 °F 49% 30.18 in 10.0 mi Calm Calm - N/A   Clear
11:53 PM 14.0 °F 2.0 °F -4.0 °F 45% 30.19 in 10.0 mi West 9.2 mph - N/A   Clear